www.pogodaiklimat.ru

Погода и климат >> Архив погоды >> Великобритания >> Остров Торвер


ПОГОДА на Острове Торвер

  • Прогноз погоды на Острове Торвер
  • Монитор погоды на Острове Торвер

АРХИВ ПОГОДЫ на Острове Торвер

Время (UTC), дата Ветер
(напр.,м/с)
 
Видим.   Явления Облачность Т
(С)
Тd
(С)
f
(%)
Тe
(С)
Тes
(С)
Комфортность P
(гПа)
Po
(гПа)
Тmin
(С)
Tmax
(С)
R
(мм)
R24
(мм)
S
(см)
16 18.06 С 4 35 км в посл. час дождь н/о +16.6 +15.5 93 +16 +16 1011.3 1010.8
17 18.06 СВ 3 23 км слаб. ливневой дождь н/о +16.4 +14.8 90 +16 +16 1011.3 1010.8
18 18.06 С 3 22 км в посл. час дождь н/о +16.3 +15.1 93 +16 +16 1010.7 1010.2 +17.6 8
19 18.06 С 3 21 км н/о +16.3 +15.2 93 +16 +16 1010.5 1010.0
20 18.06 С 2 12 км в посл. час дождь н/о +16.0 +15.1 94 +16 +16 1010.5 1010.0
21 18.06 С 4 12 км в посл. час дождь н/о +15.8 +14.9 94 +15 +15 1009.9 1009.5
22 18.06 С 4 10 км н/о +15.6 +14.7 94 +15 +15 1009.2 1008.7
23 18.06 С 2 8000 м дымка н/о +15.0 +14.2 95 +15 +15 1008.6 1008.2
00 19.06 СЗ 2 4600 м дымка н/о +14.8 +14.3 97 +15 +15 1008.6 1008.1 0.0
01 19.06 СВ 2 4700 м дымка н/о +14.5 +13.7 95 +14 +14 1007.8 1007.3
02 19.06 С 3 8000 м дымка н/о +14.5 +13.9 96 +13 +13 1007.0 1006.5
03 19.06 С 3 7000 м дымка н/о +14.5 +13.6 94 +13 +13 1006.8 1006.4
04 19.06 СЗ 3 5000 м в посл. час дождь н/о +14.5 +13.8 96 +13 +13 1006.6 1006.2
05 19.06 СЗ 2 5000 м дымка н/о +14.2 +13.5 96 +14 +14 1006.7 1006.2
06 19.06 СЗ 2 8000 м дымка н/о +14.3 +13.5 95 +14 +14 1007.0 1006.5 +14.0 0.0
07 19.06 СЗ 1 8000 м дымка н/о +15.0 +14.2 95 +15 +15 1007.3 1006.8
08 19.06 С 1 9000 м дым н/о +16.3 +14.3 88 +17 +17 1007.5 1007.0
09 19.06 СЗ 2 15 км н/о +16.6 +14.1 85 +17 +17 1007.5 1007.0
10 19.06 СЗ 2 14 км н/о +17.0 +14.4 85 +17 +17 1007.8 1007.3
11 19.06 СЗ 3 19 км н/о +18.3 +14.6 79 +19 +19 1007.9 1007.4
12 19.06 СЗ 2 24 км н/о +17.9 +13.8 77 +18 +18 1008.3 1007.8
13 19.06 З 2 19 км слаб. ливневой дождь н/о +18.3 +15.1 82 +19 +19 1008.5 1008.0
14 19.06 ЮЗ 3 11 км слаб. ливневой дождь н/о +18.3 +15.4 83 +19 +19 1008.5 1008.0
15 19.06 Ю 4 16 км в посл. час дождь н/о +18.4 +15.4 83 +19 +19 1008.5 1008.0
16 19.06 ЮЗ 4 22 км н/о +18.1 +15.0 82 +18 +18 1008.3 1007.8
17 19.06 ЮЗ 6 23 км н/о +18.3 +15.3 83 +18 +18 1008.3 1007.8
18 19.06 З 6 40 км н/о +16.6 +13.6 82 +15 +15 1008.8 1008.3 +19.1 0.0
19 19.06 З 4 35 км н/о +16.0 +14.2 89 +15 +15 1009.2 1008.8
20 19.06 З 4 14 км н/о +15.5 +14.0 91 +15 +15 1009.3 1008.8
21 19.06 З 4 30 км н/о +15.4 +14.2 93 +14 +14 1009.8 1009.4
22 19.06 З 2 21 км н/о +14.7 +13.8 94 +14 +14 1010.1 1009.6
23 19.06 З 4 26 км в посл. час дождь н/о +14.7 +13.8 94 +14 +14 1010.4 1010.0
00 20.06 З 5 50 км н/о +14.2 +11.1 82 +12 +12 1010.8 1010.3 0.0
01 20.06 З 4 45 км н/о +13.4 +9.7 78 +12 +12 1010.8 1010.3
02 20.06 З 4 45 км н/о +12.6 +9.6 82 +11 +11 1011.0 1010.6
03 20.06 З 3 50 км н/о +11.6 +9.5 87 +10 +10 1011.2 1010.7
04 20.06 З 3 40 км н/о +11.1 +9.8 92 +9 +9 1011.5 1011.0
05 20.06 З 4 40 км н/о +11.5 +10.1 91 +9 +9 1012.1 1011.6
06 20.06 З 5 45 км н/о +12.4 +10.2 86 +10 +10 1012.6 1012.1 +11.0 0.0
07 20.06 З 5 29 км н/о +13.7 +10.5 81 +12 +12 1012.9 1012.4
08 20.06 З 5 40 км н/о +15.4 +11.6 78 +14 +14 1013.1 1012.6
09 20.06 З 6 40 км н/о +16.4 +11.0 70 +15 +15 1013.4 1012.9
10 20.06 З 6 50 км н/о +16.5 +11.9 74 +15 +15 1013.8 1013.3
11 20.06 З 6 30 км н/о +17.9 +10.9 64 +17 +17 1014.0 1013.6
12 20.06 З 8 45 км н/о +15.2 +9.8 70 +13 +13 1014.3 1013.8
13 20.06 З 6 40 км н/о +17.1 +10.6 66 +16 +16 1014.4 1014.0
14 20.06 З 7 40 км н/о +16.6 +10.1 65 +15 +15 1014.6 1014.2
15 20.06 ЮЗ 8 40 км н/о +16.7 +10.4 66 +15 +15 1014.8 1014.3
16 20.06 СЗ 3 40 км в посл. час дождь н/о +15.3 +12.2 82 +15 +15 1015.0 1014.5
17 20.06 З 7 45 км н/о +16.1 +11.4 74 +15 +15 1015.1 1014.6
18 20.06 ЮЗ 8 35 км н/о +15.6 +11.1 75 +14 +14 1015.2 1014.7 +18.3 0.0
19 20.06 З 3 40 км н/о +15.3 +11.8 80 +15 +15 1015.4 1014.9
20 20.06 ЮЗ 6 25 км н/о +14.1 +11.5 84 +12 +12 1015.7 1015.2
21 20.06 З 5 20 км н/о +13.4 +11.6 89 +11 +11 1016.2 1015.8
22 20.06 З 4 20 км н/о +13.1 +11.8 92 +11 +11 1016.5 1016.0
23 20.06 З 2 27 км н/о +12.1 +11.0 93 +11 +11 1017.0 1016.6
00 21.06 З 3 40 км н/о +11.5 +10.5 94 +10 +10 1017.4 1016.9
01 21.06 З 2 45 км н/о +11.2 +10.1 93 +10 +10 1017.6 1017.1
02 21.06 С 1 28 км н/о +9.3 +8.4 94 +9 +9 1017.9 1017.4
03 21.06 С 1 20 км н/о +8.2 +7.5 95 +7 +7 1018.0 1017.5
04 21.06 З 3 40 км н/о +9.3 +8.9 97 +7 +7 1018.3 1017.8
05 21.06 З 2 45 км н/о +10.3 +9.6 95 +9 +9 1018.8 1018.3
06 21.06 СЗ 3 50 км н/о +11.7 +9.9 89 +10 +10 1019.1 1018.6 +7.8
07 21.06 З 2 45 км н/о +13.8 +10.5 80 +13 +13 1019.6 1019.1
08 21.06 З 3 27 км н/о +15.4 +10.0 70 +15 +15 1019.9 1019.4
09 21.06 З 3 40 км н/о +16.0 +9.9 67 +16 +16 1020.0 1019.5
10 21.06 З 3 45 км н/о +16.6 +9.5 63 +16 +16 1020.2 1019.8
11 21.06 Ю 5 27 км н/о +17.1 +11.5 70 +16 +16 1020.3 1019.8
12 21.06 Ю 5 35 км н/о +17.0 +12.0 72 +16 +16 1020.3 1019.8
13 21.06 Ю 4 50 км н/о +17.0 +11.0 68 +17 +17 1020.4 1019.9
14 21.06 Ю 5 45 км н/о +18.4 +12.7 69 +18 +18 1020.4 1019.9
15 21.06 Ю 7 19 км н/о +17.7 +13.4 76 +17 +17 1020.6 1020.2
16 21.06 ЮЗ 7 30 км н/о +17.6 +13.1 75 +17 +17 1020.9 1020.4
17 21.06 ЮЗ 6 45 км н/о +17.7 +11.2 66 +17 +17 1021.0 1020.5
18 21.06 З 5 50 км н/о +17.3 +9.7 61 +17 +17 1021.1 1020.6 +18.9
19 21.06 ЮЗ 4 45 км н/о +16.2 +10.2 68 +16 +16 1021.3 1020.8
20 21.06 ЮЗ 3 50 км н/о +14.8 +9.8 72 +14 +14 1021.6 1021.2
21 21.06 ЮЗ 2 50 км н/о +12.9 +9.8 81 +12 +12 1021.7 1021.3
22 21.06 ЮЗ 2 45 км н/о +12.3 +10.7 90 +11 +11 1021.9 1021.4
23 21.06 С 1 50 км н/о +10.7 +9.2 90 +11 +11 1021.9 1021.4
00 22.06 СВ 2 25 км н/о +10.3 +9.4 94 +9 +9 1022.0 1021.5
01 22.06 СВ 2 15 км н/о +9.9 +9.3 96 +9 +9 1021.7 1021.2
02 22.06 СВ 2 15 км н/о +8.7 +8.1 96 +7 +7 1021.7 1021.3
03 22.06 СВ 3 22 км н/о +8.3 +7.8 97 +6 +6 1021.6 1021.2
04 22.06 В 2 12 км н/о +9.3 +9.0 98 +7 +7 1021.4 1020.9
05 22.06 В 3 16 км н/о +10.4 +10.1 98 +8 +8 1021.5 1021.0
06 22.06 В 3 19 км н/о +12.8 +12.3 97 +11 +11 1021.6 1021.1 +7.4
07 22.06 ЮВ 4 30 км н/о +14.7 +12.0 84 +13 +13 1021.7 1021.2
08 22.06 Ю 4 45 км н/о +15.4 +12.0 80 +15 +15 1022.2 1021.7
09 22.06 ЮВ 5 50 км н/о +16.6 +9.9 65 +16 +16 1022.2 1021.7
10 22.06 Ю 4 30 км н/о +17.2 +11.0 67 +17 +17 1021.9 1021.4
11 22.06 Ю 4 40 км н/о +18.6 +12.6 68 +19 +19 1021.7 1021.2
12 22.06 ЮВ 4 30 км н/о +18.7 +9.9 57 +19 +19 1021.6 1021.1
13 22.06 Ю 4 40 км н/о +18.6 +10.8 60 +19 +19 1021.2 1020.8
14 22.06 Ю 5 30 км н/о +18.2 +11.8 66 +18 +18 1020.9 1020.4
15 22.06 ЮВ 4 50 км н/о +19.7 +11.0 57 +21 +21 комфорт 1020.5 1020.1
16 22.06 Ю 4 35 км н/о +19.4 +10.0 55 +20 +20 1020.1 1019.7
17 22.06 ЮВ 4 45 км н/о +19.3 +7.1 45 +20 +20 1019.7 1019.2
18 22.06 ЮВ 4 50 км н/о +18.8 +7.6 48 +19 +19 1019.1 1018.7 +20.1
19 22.06 ЮВ 3 30 км н/о +16.5 +9.8 65 +16 +16 1019.5 1019.0
20 22.06 В 2 50 км н/о +15.2 +10.5 74 +15 +15 1019.3 1018.8
21 22.06 СВ 3 50 км н/о +13.6 +10.4 81 +13 +13 1019.6 1019.1
22 22.06 СВ 1 40 км н/о +12.7 +10.3 85 +13 +13 1019.5 1019.0
23 22.06 СВ 3 40 км н/о +11.7 +9.7 88 +10 +10 1019.2 1018.7
00 23.06 СВ 3 45 км н/о +12.1 +10.0 87 +10 +10 1019.0 1018.5
01 23.06 СВ 4 40 км н/о +12.1 +9.7 85 +10 +10 1018.4 1017.9
02 23.06 СВ 3 45 км н/о +11.6 +9.3 86 +10 +10 1018.1 1017.6
03 23.06 СВ 3 45 км н/о +12.3 +9.5 83 +11 +11 1017.8 1017.4
04 23.06 СВ 3 30 км н/о +11.9 +9.9 88 +10 +10 1017.1 1016.6
05 23.06 СВ 3 40 км н/о +13.4 +11.0 85 +12 +12 1017.0 1016.5
06 23.06 СВ 4 35 км н/о +15.7 +12.3 80 +15 +15 1016.8 1016.3 +11.6
07 23.06 В 4 28 км н/о +17.2 +13.3 78 +17 +17 1016.8 1016.3
08 23.06 В 5 23 км н/о +18.3 +13.7 75 +18 +18 1016.9 1016.4
09 23.06 В 4 24 км н/о +19.3 +14.0 71 +21 +21 комфорт 1016.9 1016.4
10 23.06 В 4 29 км н/о +20.7 +14.5 68 +24 +24 комфорт 1016.4 1016.0
11 23.06 В 4 40 км н/о +21.9 +15.7 68 +26 +26 душно 1015.9 1015.4
12 23.06 В 4 21 км н/о +21.9 +15.6 67 +26 +26 душно 1015.2 1014.7
13 23.06 В 5 30 км н/о +23.5 +15.9 62 +27 +27 душно 1014.4 1014.0
14 23.06 ЮВ 4 28 км н/о +22.3 +15.6 66 +26 +26 жарко 1015.0 1014.5
15 23.06 В 5 22 км н/о +21.4 +16.3 73 +25 +25 комфорт 1014.2 1013.7
16 23.06 В 4 30 км н/о +22.3 +16.4 69 +27 +27 душно 1014.0 1013.5
17 23.06 В 2 35 км н/о +21.9 +16.7 72 +26 +26 душно 1013.5 1013.1
18 23.06 СВ 5 24 км н/о +21.0 +16.5 75 +25 +25 комфорт 1013.2 1012.8 +23.8
19 23.06 СВ 4 27 км н/о +20.4 +16.1 76 +23 +23 комфорт 1013.2 1012.7
20 23.06 СВ 3 30 км н/о +19.5 +16.0 80 +22 +22 комфорт 1013.1 1012.6
21 23.06 В 4 30 км н/о +19.9 +15.8 77 +22 +22 комфорт 1013.4 1012.9
22 23.06 В 3 30 км н/о +19.6 +15.9 79 +22 +22 комфорт 1013.7 1013.3
23 23.06 В 3 26 км н/о +19.0 +16.0 83 +21 +21 комфорт 1013.5 1013.0
00 24.06 В 3 30 км н/о +19.0 +16.2 84 +21 +21 комфорт 1013.2 1012.7
01 24.06 СВ 2 20 км н/о +17.5 +15.6 89 +18 +18 1013.4 1012.9
02 24.06 В 3 27 км н/о +18.1 +16.1 88 +18 +18 1012.8 1012.3
03 24.06 В 3 30 км н/о +18.2 +16.2 88 +19 +19 1012.6 1012.1
04 24.06 В 3 26 км н/о +18.0 +16.1 89 +18 +18 1012.8 1012.4
05 24.06 В 4 30 км н/о +18.0 +16.4 90 +18 +18 1012.5 1012.0
06 24.06 В 3 30 км н/о +18.8 +16.6 87 +20 +20 1013.4 1012.9 +16.9
07 24.06 Ю 4 35 км н/о +17.4 +15.5 89 +17 +17 1014.4 1013.9
08 24.06 ЮЗ 2 18 км слаб. ливневой дождь н/о +17.9 +16.6 92 +18 +18 1015.2 1014.8
09 24.06 З 4 22 км в посл. час дождь н/о +19.6 +17.3 87 +22 +22 комфорт 1015.0 1014.5
10 24.06 З 4 17 км н/о +19.6 +16.5 82 +22 +22 комфорт 1015.8 1015.4
11 24.06 Ю 4 11 км н/о +18.7 +16.1 85 +20 +20 1016.9 1016.5
12 24.06 Ю 5 7000 м в посл. час дождь н/о +17.2 +15.5 90 +16 +16 1017.1 1016.7 0.0
13 24.06 Ю 5 7000 м дым н/о +16.8 +15.4 91 +16 +16 1017.5 1017.1
14 24.06 З 3 12 км н/о +19.9 +17.0 83 +23 +23 комфорт 1016.7 1016.2
15 24.06 З 2 40 км н/о +20.5 +16.0 75 +24 +24 комфорт 1016.7 1016.2
16 24.06 Ю 4 20 км н/о +18.5 +16.0 85 +19 +19 1016.7 1016.2
17 24.06 Ю 4 23 км н/о +16.6 +15.2 91 +16 +16 1016.9 1016.5
18 24.06 Ю 2 19 км слаб. морось с дождем н/о +16.6 +15.2 91 +17 +17 1017.7 1017.3 +20.6 0.0
19 24.06 ЮВ 3 16 км в посл. час дождь н/о +16.0 +14.7 92 +15 +15 1018.3 1017.8
20 24.06 Ю 3 18 км в посл. час дождь н/о +15.4 +14.5 94 +15 +15 1018.5 1018.0
21 24.06 ЮВ 1 15 км н/о +15.3 +14.5 95 +16 +16 1018.4 1017.9
22 24.06 СВ 2 11 км н/о +15.3 +14.6 96 +15 +15 1018.0 1017.6
23 24.06 ЮВ 2 4600 м ливневой дождь н/о +15.5 +15.0 97 +15 +15 1018.7 1018.2
00 25.06 СЗ 3 5000 м в посл. час дождь н/о +15.6 +15.1 97 +15 +15 1017.2 1016.8 0.8
01 25.06 СЗ 3 10 км слаб. ливневой дождь н/о +15.8 +15.3 97 +15 +15 1016.9 1016.4
02 25.06 С 2 9000 м дождь н/о +15.9 +15.4 97 +16 +16 1016.5 1016.0
03 25.06 З 1 8000 м дождь н/о +15.8 +15.3 97 +16 +16 1016.3 1015.8
04 25.06 В 2 4900 м в посл. час дождь н/о +15.3 +14.9 97 +15 +15 1016.4 1015.9
05 25.06 С 2 13 км н/о +15.4 +15.1 98 +15 +15 1015.7 1015.2
06 25.06 З 3 9000 м ливневой дождь н/о +16.0 +15.6 97 +16 +16 1016.9 1016.4 +15.2 5
07 25.06 СЗ 2 13 км в посл. час дождь н/о +16.7 +16.3 97 +17 +17 1016.9 1016.4
08 25.06 СЗ 3 14 км н/о +18.2 +17.3 94 +19 +19 1016.9 1016.5
09 25.06 СЗ 4 15 км н/о +18.8 +17.6 93 +20 +20 1017.2 1016.7
11 25.06 СЗ 3 40 км н/о +21.4 +17.7 79 +26 +26 душно 1017.9 1017.5
12 25.06 СЗ 4 40 км н/о +23.0 +19.0 78 +29 +29 очень
душно
1018.1 1017.7 0.2
13 25.06 З 4 28 км н/о +23.7 +18.7 74 +28 +28 душно 1018.4 1018.0
15 25.06 0 н/о 1018.4
16 25.06 0 н/о 1018.9
17 25.06 ЮЗ 3 45 км н/о +21.7 +17.4 77 +26 +26 душно 1019.7 1019.2

 

Местоположение метеостанции Остров Торвер (Великобритания): широта 50.82 долгота -0.92 высота над уровнем моря 3 м.

В архиве по умолчанию представлена погода на Острове Торвер за последнюю неделю. Архивные данные за месяц целиком и за предыдущие месяцы, начиная с января 2011 года, Вы можете получить, выбрав интересующий диапазон дат из раскрывающегося списка и нажав кнопку "Ввод!".


*Определитесь, кто Вы:
робот инопланетянин человек

Внимание! Время в таблицах - всемирное. Для получения местного времени необходимо прибавить поправку, которая равна 0 ч.

Смотрите также архив погоды в соседних городах и на ближайших метеорологических станциях:

Погода в Ли-он-те-Соленте (Великобритания) (21 км)
Погода на Маяке St. Catherines (Великобритания) (38 км)
Погода в Аэропорту Брайтон-Сити (Великобритания) (45 км)
Погода в Одихеме (Великобритания) (46 км)
Погода в Фарнборо (Великобритания) (52 км)
Погода в Мидл Уоллоп (Великобритания) (58 км)
Погода в Чарлвуде (Великобритания) (59 км)
Погода в Борнмуте (Великобритания) (64 км)
Погода в Боскомб Даун (Великобритания) (70 км)
Погода в Ларкхилле (Великобритания) (75 км)

Пояснения к столбцам:

Ветер - указаны скорость ветра в м/с - средняя за 10 мин, порывы в срок и между сроками (в фигурных скобках) и направление, откуда дует ветер: С - северный, СВ - северо-восточный, В - восточный, ЮВ - юго-восточный, Ю - южный, ЮЗ - юго-западный, З - западный, СЗ - северо-западный.
Видимость - горизонтальная дальность видимости в метрах или километрах. При видимости от 1 до 10 км при отсутствии осадков обычно наблюдается дымка, при ухудшении видимости до 1 км и менее - туман. В сухую погоду видимость может ухудшаться дымом, пылью или мглою.
Явления - указаны атмосферные явления, наблюдавшиеся в срок или в последний час перед сроком; фигурными скобками обозначены явления, наблюдавшиеся между сроками (за 1-3 часа до срока); квадратными скобками обозначены град или гололедные отложения с указанием их диаметра в мм.
Облачность - указаны через наклонную черту общая и нижняя облачность в баллах и высота нижней границы облаков в метрах; квадратными скобками обозначены формы облаков: Ci - перистые, Cs - перисто-слоистые, Cc - перисто-кучевые, Ac - высококучевые, As - высокослоистые, Sc - слоисто-кучевые, Ns - слоисто-дождевые, Cu - кучевые, Cb - кучево-дождевые. Подробнее классификацию облаков см. в Атласе облаков (PDF).
T - Температура воздуха - температура, измеренная на высоте 2 м над землей.
Td - Температура точки росы - температура, при понижении до которой содержащийся в воздухе водяной пар достигнет насыщения.
f - Относительная влажность воздуха - влажноcть воздуха, измеренная на высоте 2 м над землей.
Te - Эффективная температура - температура, которую ощущает одетый по сезону человек в тени. Характеристика душности погоды. При расчете учитывается влияние влажности воздуха и скорости ветра на теплоощущения человека.
Tes - Эффективная температура на солнце - температура, которую ощущает человек, с поправкой на солнечный нагрев. Характеристика знойности погоды. Зависит от высоты солнца над горизонтом, облачности и скорости ветра. Ночью, в пасмурную погоду, а также при ветре 12 м/с и более поправка равна нулю.
P - Атмосферное давление - приведенное к уровню моря атмосферное давление.
Po - Атмосферное давление - измеренное на уровне метеостанции атмосферное давление.
Tmin - Минимальная температура - минимум температуры воздуха на высоте 2 м над землей.
Tmax - Максимальная температура - максимум температуры воздуха на высоте 2 м над землей.
R - Количество осадков - Количество выпавших осадков за период времени, мм. При наведении курсора мыши на число - период времени, за который выпало указанное количество осадков.
R24 - Количество осадков - Количество выпавших осадков за 24 часа, мм.
S - Снежный покров - Высота снежного покрова, см. При наведении курсора мыши на число - состояние снежного покрова и степень покрытия местности в баллах.